Probability
0 0 0 0 0 0 0 0 0 0 0 3 0 6 13 26 32 35 35 42 52 58 55 71 81 74 77 84 90 87 90 87 87 87 87 90 87 81 84 87 87 84 84 84
0 0 0 0 0 0 0 0 0 0 0 0 0 3 19 23 32 26 42 45 45 52 58 81 84 87 90 90 90 90 90 87 87 90 94 94 97 87 81 81 87 84 84 87
0 0 0 0 0 0 0 0 0 0 0 0 0 0 16 23 23 35 35 39 42 48 61 84 94 94 90 94 97 94 94 90 90 90 90 94 94 94 84 87 87 90 87 84
0 0 0 0 0 0 0 0 0 0 0 0 0 0 3 19 32 32 42 42 42 52 61 81 94 94 90 94 97 97 100 97 94 94 90 94 94 84 84 90 87 87 87 81
0 0 0 0 0 0 0 0 0 0 0 0 0 0 3 13 26 39 39 42 39 52 58 68 94 94 97 94 94 94 100 94 94 90 90 90 87 84 81 77 84 81 77 77
0 0 0 0 0 0 0 0 0 0 0 0 0 0 3 6 16 23 35 39 39 45 58 71 81 94 94 90 90 90 97 90 94 90 90 90 90 84 81 84 84 84 81 81
0 0 0 0 0 0 0 0 0 0 0 0 0 0 10 13 19 23 23 39 45 45 61 77 84 87 90 90 94 90 97 94 94 90 90 90 87 81 81 81 81 77 81 74
0 0 0 0 0 0 0 0 0 0 0 0 0 0 10 23 23 26 29 39 48 52 61 81 84 81 90 94 90 90 97 97 97 94 81 81 81 77 81 81 77 81 77 68
0 0 0 0 0 0 0 0 0 0 0 0 0 3 13 19 23 26 32 39 52 48 65 71 77 74 77 87 87 90 94 90 90 84 84 84 84 87 87 84 87 87 90 81
0 0 0 0 0 0 0 0 0 0 0 0 0 0 0 26 26 26 32 32 52 55 55 65 77 84 71 77 81 87 94 87 84 81 81 77 87 87 87 81 84 87 90 84
0 0 0 0 0 0 0 0 0 0 0 0 0 0 6 23 32 32 35 35 45 52 52 71 81 81 81 84 84 87 87 81 77 77 77 77 77 77 81 81 77 74 77 74
0 0 0 0 0 0 0 0 0 0 0 0 0 0 23 29 35 35 42 48 45 48 55 74 74 74 77 77 84 90 84 74 74 74 74 74 77 77 81 74 74 77 81 81
0 0 0 0 0 0 0 0 3 0 0 0 0 3 23 29 35 42 48 55 61 71 68 81 84 81 77 77 87 87 84 77 74 77 77 74 74 74 65 71 74 74 71 71
0 0 0 0 0 0 0 3 0 0 0 0 0 6 26 23 39 45 52 55 65 68 81 77 81 87 81 77 81 81 74 77 77 77 74 74 68 65 65 68 71 68 68 65
0 0 0 0 0 0 0 0 3 3 3 0 3 10 13 26 39 48 58 68 65 71 71 74 74 74 81 77 74 77 74 74 68 71 71 68 58 58 58 58 58 61 65 65
3 3 0 0 0 0 0 0 0 0 3 3 3 13 19 32 42 55 61 68 71 68 61 71 74 77 74 74 65 65 65 68 65 61 61 61 61 61 58 58 55 55 48 45
0 3 0 0 0 0 0 0 0 0 0 3 3 16 23 32 42 52 71 61 65 61 65 68 68 68 68 68 58 61 58 52 55 61 58 61 58 55 55 52 52 48 45 45
0 0 0 0 0 0 3 6 6 0 3 6 16 23 26 39 32 39 55 71 71 68 68 71 61 61 65 61 52 58 55 45 42 48 52 52 55 55 52 45 48 48 45 45
0 0 0 0 0 0 6 6 6 6 6 19 23 23 35 39 35 42 48 58 68 61 65 61 61 61 58 55 52 52 52 48 48 45 48 45 48 48 42 42 42 42 45 45
0 3 0 0 0 0 3 6 6 6 10 23 29 39 45 39 45 39 55 55 55 58 55 61 52 48 52 42 45 48 45 42 42 42 42 42 45 39 39 42 39 39 39 42
0 0 0 0 0 0 6 6 10 3 16 29 35 45 48 45 39 45 48 55 52 45 45 48 48 48 48 35 39 35 35 42 42 42 39 39 35 32 35 39 39 35 35 35
0 0 0 0 0 0 6 10 10 26 45 42 42 39 45 42 42 48 45 48 52 45 45 48 45 42 39 29 29 32 29 29 32 39 35 35 32 29 29 35 35 35 35 35
0 0 0 0 0 19 10 26 39 45 45 42 42 42 39 39 45 42 42 39 39 42 45 45 42 39 35 29 29 26 29 35 29 35 32 32 32 26 26 26 32 35 32 32
0 6 3 0 3 13 13 16 35 42 45 48 48 39 35 35 35 42 35 35 32 35 32 39 39 35 26 26 26 29 26 29 29 26 32 32 26 26 26 29 26 29 29 29
3 0 0 3 19 26 23 26 32 32 29 39 39 32 32 32 35 29 35 39 32 39 29 26 29 23 29 29 26 26 26 26 29 26 23 26 23 23 23 26 16 23 23 23
3 3 3 3 16 23 16 16 23 32 35 29 26 26 29 29 32 29 35 32 26 26 23 26 29 19 23 23 23 23 26 26 29 23 19 16 23 23 19 19 6 6 6 0
Height
5916 5920 5923 5926 5928 5930 5932 5935 5936 5937 5937 5939 5940 5940 5940 5940 5940 5939 5938 5937 5936 5935 5934 5932 5931 5929 5927 5925 5924 5922 5920 5918 5916 5914 5913 5911 5910 5909 5908 5907 5906 5905 5904 5904
5913 5916 5919 5921 5924 5927 5929 5931 5933 5934 5935 5937 5938 5939 5939 5939 5939 5939 5938 5937 5936 5935 5933 5932 5931 5929 5927 5925 5924 5922 5920 5918 5916 5914 5913 5912 5911 5909 5908 5907 5906 5905 5904 5903
5908 5912 5914 5918 5921 5923 5926 5928 5930 5931 5933 5934 5936 5937 5937 5937 5937 5937 5937 5936 5935 5934 5933 5932 5930 5929 5927 5925 5924 5922 5920 5918 5917 5915 5914 5912 5911 5910 5908 5907 5906 5905 5904 5903
5902 5906 5910 5913 5916 5919 5922 5924 5926 5928 5930 5932 5934 5937 5936 5935 5935 5935 5935 5934 5934 5933 5932 5931 5930 5928 5927 5925 5923 5921 5920 5918 5917 5915 5914 5912 5911 5910 5908 5907 5906 5905 5904 5903
5898 5902 5905 5909 5912 5915 5917 5920 5922 5925 5927 5929 5931 5933 5935 5933 5933 5933 5933 5933 5932 5931 5931 5930 5929 5927 5926 5924 5922 5921 5919 5918 5916 5915 5913 5911 5910 5909 5908 5907 5905 5904 5903 5903
5892 5896 5900 5904 5907 5910 5913 5916 5919 5921 5924 5926 5927 5930 5931 5930 5930 5931 5931 5930 5930 5929 5929 5928 5927 5926 5925 5923 5921 5919 5918 5917 5915 5914 5912 5911 5910 5908 5907 5906 5905 5904 5903 5902
5887 5891 5894 5898 5902 5905 5909 5913 5916 5918 5920 5922 5923 5925 5927 5927 5927 5927 5928 5928 5927 5927 5926 5926 5925 5924 5923 5921 5919 5918 5916 5915 5914 5912 5911 5910 5909 5908 5907 5905 5904 5903 5902 5902
5882 5886 5889 5893 5897 5900 5904 5909 5913 5916 5918 5919 5918 5920 5923 5922 5923 5924 5924 5924 5924 5924 5924 5923 5923 5922 5921 5919 5918 5916 5915 5913 5912 5911 5910 5909 5908 5907 5906 5905 5904 5903 5902 5902
5877 5881 5884 5888 5892 5896 5899 5902 5907 5910 5912 5915 5915 5916 5918 5918 5919 5920 5920 5921 5921 5921 5921 5921 5920 5920 5918 5917 5916 5914 5913 5912 5911 5910 5909 5908 5908 5907 5906 5904 5903 5902 5902 5901
5870 5875 5878 5882 5886 5890 5894 5897 5901 5904 5907 5910 5911 5912 5914 5914 5915 5916 5917 5917 5918 5918 5918 5918 5918 5917 5916 5915 5914 5913 5912 5911 5910 5909 5908 5907 5906 5905 5905 5904 5902 5901 5901 5900
5864 5869 5873 5877 5880 5884 5888 5892 5895 5899 5902 5906 5909 5911 5909 5910 5911 5913 5913 5914 5914 5914 5915 5915 5915 5915 5914 5914 5913 5912 5911 5910 5909 5908 5907 5906 5905 5904 5903 5902 5901 5900 5900 5899
5858 5863 5867 5871 5875 5878 5882 5886 5890 5893 5895 5899 5903 5908 5903 5905 5907 5908 5909 5910 5911 5911 5912 5912 5912 5912 5912 5911 5911 5910 5909 5908 5908 5907 5906 5905 5904 5902 5901 5900 5900 5899 5898 5897
5851 5856 5861 5865 5870 5873 5876 5879 5883 5887 5890 5893 5897 5902 5898 5900 5902 5904 5905 5906 5907 5908 5908 5909 5909 5909 5909 5909 5908 5908 5907 5906 5906 5905 5904 5903 5902 5900 5899 5898 5897 5896 5896 5895
5845 5850 5856 5861 5863 5867 5870 5873 5877 5881 5884 5887 5891 5894 5893 5895 5897 5899 5900 5901 5903 5904 5904 5905 5905 5905 5906 5905 5905 5905 5904 5904 5903 5902 5901 5900 5899 5898 5896 5895 5894 5894 5893 5893
5838 5843 5848 5852 5855 5860 5863 5867 5871 5874 5878 5882 5884 5886 5888 5889 5892 5894 5895 5897 5898 5899 5900 5901 5901 5902 5902 5902 5902 5902 5901 5901 5900 5899 5898 5897 5896 5895 5893 5892 5891 5890 5890 5889
5832 5837 5842 5846 5849 5853 5857 5860 5864 5868 5871 5874 5877 5880 5882 5883 5886 5888 5890 5892 5893 5895 5896 5897 5897 5897 5898 5898 5898 5898 5897 5897 5896 5895 5894 5893 5893 5892 5890 5889 5889 5888 5887 5886
5826 5831 5836 5840 5843 5846 5851 5854 5858 5861 5865 5868 5871 5874 5875 5878 5880 5882 5884 5886 5888 5889 5891 5892 5892 5893 5893 5893 5894 5893 5893 5893 5892 5892 5891 5890 5889 5888 5887 5886 5885 5884 5883 5883
5820 5825 5830 5834 5837 5841 5846 5848 5852 5855 5858 5862 5865 5867 5869 5872 5874 5876 5878 5881 5882 5884 5885 5886 5887 5887 5888 5889 5889 5889 5889 5888 5888 5887 5887 5886 5885 5884 5884 5883 5882 5880 5879 5879
5813 5819 5823 5828 5831 5835 5838 5842 5845 5849 5852 5855 5858 5861 5863 5866 5868 5870 5872 5874 5876 5878 5879 5881 5882 5882 5883 5883 5884 5884 5884 5883 5883 5882 5882 5881 5881 5880 5879 5878 5877 5876 5875 5874
5807 5812 5817 5821 5825 5829 5832 5835 5839 5843 5845 5849 5852 5854 5857 5859 5862 5864 5866 5868 5870 5871 5873 5875 5876 5877 5877 5877 5877 5877 5877 5877 5877 5877 5877 5876 5876 5875 5874 5874 5873 5872 5871 5870
5801 5805 5809 5814 5818 5822 5825 5828 5833 5838 5840 5843 5845 5848 5850 5853 5856 5858 5859 5861 5863 5864 5866 5868 5870 5870 5871 5871 5871 5871 5871 5871 5871 5871 5871 5871 5870 5870 5869 5868 5868 5867 5866 5865
5795 5799 5803 5807 5812 5817 5818 5821 5826 5829 5832 5835 5838 5840 5843 5846 5848 5850 5853 5855 5857 5858 5859 5861 5863 5864 5864 5864 5865 5865 5865 5864 5865 5866 5866 5865 5865 5864 5863 5862 5862 5861 5861 5860
5788 5793 5796 5801 5806 5808 5811 5814 5818 5822 5825 5827 5830 5833 5836 5838 5841 5844 5846 5848 5850 5852 5854 5855 5856 5857 5857 5857 5858 5858 5859 5859 5859 5859 5859 5859 5858 5858 5857 5857 5856 5856 5855 5855
5781 5785 5789 5793 5796 5800 5803 5807 5810 5814 5817 5820 5823 5826 5828 5831 5834 5836 5839 5841 5843 5845 5847 5848 5849 5850 5851 5851 5852 5852 5852 5852 5853 5853 5852 5852 5852 5852 5851 5851 5850 5850 5849 5849
5774 5778 5782 5785 5789 5792 5795 5799 5802 5806 5809 5812 5815 5818 5821 5824 5826 5829 5832 5834 5836 5837 5839 5841 5842 5842 5843 5844 5845 5845 5845 5845 5845 5845 5845 5845 5845 5845 5845 5844 5844 5843 5843 5842
5766 5770 5774 5778 5781 5785 5788 5791 5794 5797 5800 5804 5807 5810 5813 5816 5819 5821 5824 5826 5828 5830 5831 5833 5834 5835 5836 5837 5837 5838 5838 5838 5838 5838 5838 5838 5838 5838 5838 5837 5837 5836 5836 5835
Wind_Speed
23 22 21 19 18 17 15 14 13 12 9 8 7 7 6 6 6 7 7 7 8 9 10 9 9 9 9 9 9 10 10 10 9 8 8 9 9 8 7 7 6 6 5 4
24 24 23 21 19 18 17 16 16 14 12 10 9 9 8 7 7 7 7 8 8 9 9 8 8 9 9 9 9 10 9 10 10 8 8 8 9 8 8 7 6 6 6 4
26 25 24 23 21 20 19 18 18 17 14 13 11 10 9 8 9 9 8 9 9 9 8 9 9 9 9 9 9 10 10 10 10 9 8 9 9 9 9 8 7 7 6 4
28 26 25 24 23 21 21 20 19 18 16 15 13 12 11 10 10 9 10 10 10 9 9 9 9 9 9 9 9 10 10 10 9 9 9 9 9 9 8 8 7 7 7 5
29 28 27 26 24 23 23 21 20 19 18 17 15 13 13 12 11 11 11 11 10 10 10 10 10 10 11 11 10 9 10 10 10 10 10 9 9 9 8 7 7 7 6 5
30 28 28 27 26 25 24 22 21 20 19 19 17 15 14 14 12 12 12 12 12 12 12 11 11 11 12 13 11 10 10 10 10 10 10 9 9 9 9 8 7 6 6 5
30 29 29 28 27 26 25 23 22 21 21 20 18 17 16 15 13 13 13 12 12 13 13 12 12 12 12 12 11 11 11 10 11 10 10 10 9 9 9 8 7 7 6 6
31 30 29 28 28 27 25 25 23 21 20 19 20 19 17 16 15 14 14 13 13 14 14 13 13 13 12 11 11 11 11 10 10 10 10 10 10 10 9 9 8 7 7 6
31 31 30 28 28 27 27 26 24 23 21 20 20 20 18 17 16 15 14 13 13 14 14 13 12 12 12 11 11 10 10 10 10 10 10 10 10 10 10 9 9 8 7 6
32 31 30 29 29 29 28 27 27 25 23 21 20 20 19 17 16 15 15 14 13 13 13 12 12 11 11 11 11 10 10 9 10 10 10 10 10 10 10 9 8 7 7 6
32 32 31 30 30 29 28 28 27 26 25 21 19 19 19 18 17 16 16 15 13 13 12 12 11 11 12 12 11 11 11 11 11 11 11 11 10 10 9 8 8 8 8 7
33 32 31 31 30 30 29 28 27 27 27 25 21 20 21 19 18 17 16 16 15 14 13 12 13 12 12 12 12 12 12 12 12 11 11 11 11 10 10 10 10 10 9 8
33 33 32 31 31 31 30 29 28 27 27 25 23 22 23 21 19 18 17 17 16 15 14 13 13 14 13 13 13 13 13 13 13 13 12 12 12 11 11 11 11 10 10 9
33 33 32 30 29 30 30 30 29 28 27 26 24 23 23 22 21 19 19 18 17 16 15 14 15 15 15 15 15 15 15 14 14 14 14 13 13 12 12 11 11 11 11 11
33 33 32 32 31 30 29 29 29 28 27 25 23 23 23 23 23 21 20 20 19 18 18 17 16 16 16 16 16 16 15 15 15 15 15 15 14 13 13 12 12 12 12 12
33 32 31 31 31 31 30 30 29 28 27 26 25 23 23 23 23 22 21 20 20 20 20 19 18 17 16 16 17 17 17 17 16 16 15 15 15 14 14 14 14 14 13 13
32 31 30 29 30 30 31 30 29 28 27 26 25 24 24 23 22 22 22 22 21 20 20 19 19 18 18 18 17 18 18 18 18 17 17 17 16 16 15 15 15 15 15 15
31 30 29 28 29 29 30 30 29 28 27 26 26 25 25 24 24 23 23 23 22 21 21 21 20 20 19 19 19 19 19 19 19 19 18 18 17 17 16 16 16 16 16 16
31 30 30 29 29 30 31 30 28 28 27 27 26 26 25 24 24 24 24 24 24 23 22 22 21 21 20 20 20 20 20 20 20 20 19 19 19 18 17 17 17 17 16 16
31 31 31 30 29 29 30 29 28 28 28 27 26 25 25 24 24 24 24 24 24 23 23 22 22 22 22 22 22 22 22 21 20 20 20 20 19 19 18 18 18 18 17 17
31 31 31 30 29 29 29 29 28 28 28 27 26 26 25 25 25 24 24 25 25 23 22 22 22 23 23 23 23 23 22 21 21 21 21 20 20 20 20 19 19 18 18 18
30 30 30 29 28 29 30 29 29 28 27 27 27 26 26 26 26 25 24 24 24 23 23 23 24 24 24 24 24 24 23 22 22 22 22 21 21 21 21 20 19 19 19 19
32 31 31 31 31 30 29 28 28 28 28 28 27 27 27 27 26 26 25 25 24 24 24 24 24 24 24 24 24 24 23 23 23 23 23 22 22 22 22 21 20 20 20 20
32 32 32 32 32 31 30 30 29 29 29 28 28 28 27 27 27 27 27 27 26 26 25 25 24 24 25 24 23 23 23 23 23 23 23 23 23 22 22 22 21 22 22 22
33 33 32 32 32 32 32 31 31 30 30 30 29 29 28 28 27 27 28 28 28 27 26 25 25 26 26 26 25 26 25 25 24 23 23 23 23 22 22 22 22 23 23 23
33 33 33 33 32 32 32 32 32 32 31 31 31 31 30 30 29 29 29 28 29 29 28 27 27 27 26 27 27 27 27 25 24 24 24 24 23 23 23 23 24 24 24 24
Wind_Direction
225 226 225 225 225 226 227 230 234 236 238 241 246 255 269 281 298 313 323 331 339 344 347 350 353 355 356 356 358 359 360 2 5 10 12 12 10 7 4 2 359 355 354 349
225 227 227 227 228 229 229 231 235 238 241 245 250 255 263 268 279 292 305 314 322 330 335 338 339 342 341 342 344 347 350 356 357 359 2 3 0 357 357 357 358 353 348 340
226 228 229 229 229 230 230 231 234 239 244 247 251 259 262 266 275 282 292 300 306 312 318 323 325 326 328 335 339 342 343 345 352 355 353 352 351 347 346 346 346 346 347 341
228 228 229 230 230 231 233 233 235 239 242 246 245 252 262 263 270 277 283 287 293 299 303 310 316 318 319 323 330 334 338 343 347 350 347 345 345 344 342 344 340 334 333 331
230 229 230 231 231 231 234 235 236 240 242 244 247 244 255 259 263 270 274 278 284 290 294 300 309 314 315 315 319 325 330 333 337 339 338 338 342 344 341 338 333 335 335 324
230 229 230 231 232 232 234 236 238 241 241 243 246 245 248 256 259 266 269 271 276 281 286 292 300 307 311 310 311 318 323 325 327 331 333 337 338 338 333 328 326 323 327 321
229 229 229 230 232 232 233 234 237 238 240 244 246 245 245 252 257 260 265 268 273 275 278 283 290 299 310 309 309 313 318 319 323 326 325 328 332 331 329 328 326 322 322 320
229 230 230 230 231 233 233 233 233 236 243 246 248 246 247 251 256 260 263 264 268 270 273 278 287 294 303 304 302 306 310 313 318 320 320 321 321 322 325 329 327 321 320 316
228 231 231 230 231 231 231 231 232 236 238 240 248 250 250 251 256 259 262 265 267 268 271 278 283 289 293 295 296 298 304 307 312 314 314 318 317 316 316 320 320 315 315 316
227 230 230 230 230 230 231 232 232 233 236 239 246 250 252 252 254 258 262 266 267 267 269 274 277 281 286 291 295 295 301 308 311 313 313 315 315 314 313 311 317 318 317 313
226 228 230 230 230 231 232 232 233 235 237 238 244 252 253 251 252 255 260 263 263 263 263 268 275 277 281 286 289 293 297 298 302 307 311 312 312 309 311 309 306 309 310 307
225 227 229 231 231 231 232 233 234 236 239 238 236 248 252 250 251 253 256 259 258 259 259 264 274 275 276 278 281 284 288 292 296 300 304 308 309 305 301 300 299 298 300 301
224 226 228 230 231 231 232 233 233 235 239 240 238 244 249 248 247 250 253 254 253 255 258 262 268 271 273 274 276 279 281 285 290 294 298 300 303 304 300 298 294 291 291 295
223 225 225 228 233 233 233 234 234 235 237 241 239 239 245 246 246 247 248 249 249 251 256 263 267 267 271 271 274 278 280 282 285 290 292 294 297 298 297 294 293 290 289 291
223 225 225 226 229 231 232 233 234 235 236 238 239 239 241 245 245 245 246 246 247 250 254 260 264 263 266 269 273 276 278 281 284 287 289 290 291 291 291 288 289 290 289 287
223 225 226 227 230 231 231 232 233 234 235 236 237 238 240 242 242 243 245 245 246 250 253 257 260 260 263 267 271 275 278 279 281 285 287 288 287 287 287 285 286 287 287 286
223 224 225 226 228 230 231 231 232 235 236 236 237 238 240 239 240 242 243 244 246 247 249 253 255 258 262 266 268 271 275 277 280 284 284 284 284 285 284 285 286 287 285 283
221 222 223 225 227 228 230 230 231 234 235 235 236 237 239 239 240 241 242 243 245 246 247 251 254 257 260 263 264 267 271 273 277 280 280 282 284 285 284 284 287 288 287 284
220 221 222 224 228 230 232 231 231 233 235 235 236 237 238 239 241 242 243 243 245 247 247 250 253 257 259 260 262 264 268 270 273 276 278 281 282 282 282 283 286 288 287 284
218 221 224 226 227 230 233 232 231 232 235 235 236 237 238 239 241 242 242 244 245 246 248 250 253 255 257 259 261 264 266 268 271 274 277 279 280 280 280 281 283 286 285 283
217 220 223 226 228 231 232 231 230 232 234 235 236 237 238 239 239 239 240 241 243 246 247 249 253 256 258 259 262 265 266 268 270 272 273 277 278 279 280 279 279 281 283 281
217 220 223 225 228 231 233 233 232 233 234 235 235 236 238 238 239 238 239 240 242 247 250 251 254 257 260 260 263 264 266 269 270 271 272 275 278 279 279 279 277 279 281 281
219 221 224 227 229 232 234 235 236 235 235 235 235 236 237 238 239 239 240 241 243 246 249 251 255 258 259 261 262 262 265 268 270 270 272 274 276 277 277 277 277 277 279 281
225 225 227 230 232 233 234 236 236 236 237 237 238 238 237 237 237 237 238 240 244 246 248 251 255 257 258 260 262 264 266 268 269 272 273 274 273 274 274 275 275 277 278 280
228 228 230 232 234 235 236 237 238 238 238 239 239 239 238 237 237 237 239 241 243 245 249 251 254 256 257 260 263 265 267 268 270 272 272 273 272 273 275 276 277 278 279 279
230 231 232 234 236 238 238 238 239 239 239 239 240 240 238 238 240 240 242 244 246 247 250 253 255 257 259 261 262 263 265 268 270 271 272 272 272 273 275 277 277 278 278 278